| time (UTC) | temp F | wind direction | speed knots | gust knots | rain 1hr in | rain 24hr in | rain mn in | humidity % | barometer mb |
| 20260504212537 | 69 | 180 | 2.6 | 10.4 | 0.00 | 0.00 | 0.00 | 32 | 1005.2 |
| 20260504212034 | 68 | 277 | 7.8 | 10.4 | 0.00 | 0.00 | 0.00 | 32 | 1005.3 |
| 20260504211531 | 68 | 239 | 7.0 | 7.8 | 0.00 | 0.00 | 0.00 | 32 | 1005.2 |
| 20260504211028 | 68 | 247 | 3.5 | 13.9 | 0.00 | 0.00 | 0.00 | 32 | 1005.3 |
| 20260504210525 | 68 | 180 | 3.5 | 7.8 | 0.00 | 0.00 | 0.00 | 33 | 1005.3 |
| 20260504210022 | 68 | 217 | 7.8 | 7.8 | 0.00 | 0.00 | 0.00 | 32 | 1005.1 |
| 20260504205520 | 70 | 180 | 2.6 | 10.4 | 0.00 | 0.00 | 0.00 | 30 | 1005.3 |
| 20260504205017 | 69 | 222 | 3.5 | 11.3 | 0.00 | 0.00 | 0.00 | 30 | 1005.1 |
| 20260504204515 | 69 | 244 | 9.6 | 13.0 | 0.00 | 0.00 | 0.00 | 30 | 1005.3 |
| 20260504204014 | 70 | 180 | 2.6 | 7.0 | 0.00 | 0.00 | 0.00 | 31 | 1005.1 |
| 20260504203512 | 71 | 219 | 4.3 | 5.2 | 0.00 | 0.00 | 0.00 | 30 | 1005.2 |
| 20260504203009 | 69 | 228 | 2.6 | 7.8 | 0.00 | 0.00 | 0.00 | 31 | 1005.2 |
| 20260504202504 | 68 | 199 | 6.1 | 10.4 | 0.00 | 0.00 | 0.00 | 31 | 1005.3 |
| 20260504202001 | 68 | 227 | 7.8 | 7.8 | 0.00 | 0.00 | 0.00 | 32 | 1005.3 |
| 20260504201458 | 68 | 136 | 1.7 | 9.6 | 0.00 | 0.00 | 0.00 | 32 | 1005.1 |
| 20260504200955 | 69 | 228 | 7.0 | 9.6 | 0.00 | 0.00 | 0.00 | 30 | 1005.1 |
| 20260504200452 | 69 | 231 | 5.2 | 10.4 | 0.00 | 0.00 | 0.00 | 30 | 1005.5 |
| 20260504195949 | 69 | 226 | 14.8 | 14.8 | 0.00 | 0.00 | 0.00 | 29 | 1005.4 |
| 20260504195444 | 68 | 131 | 3.5 | 13.0 | 0.00 | 0.00 | 0.00 | 32 | 1005.2 |
| 20260504194941 | 68 | 212 | 5.2 | 15.6 | 0.00 | 0.00 | 0.00 | 30 | 1005.5 |
| 20260504194438 | 69 | 229 | 5.2 | 8.7 | 0.00 | 0.00 | 0.00 | 30 | 1005.3 |
| 20260504193934 | 69 | 250 | 7.8 | 8.7 | 0.00 | 0.00 | 0.00 | 29 | 1005.5 |
| 20260504193431 | 69 | 221 | 2.6 | 13.0 | 0.00 | 0.00 | 0.00 | 30 | 1005.4 |
| 20260504192930 | 70 | 233 | 5.2 | 18.2 | 0.00 | 0.00 | 0.00 | 29 | 1005.3 |
| 20260504192426 | 69 | 228 | 3.5 | 9.6 | 0.00 | 0.00 | 0.00 | 29 | 1005.5 |
| 20260504191926 | 68 | 226 | 3.5 | 11.3 | 0.00 | 0.00 | 0.00 | 32 | 1005.5 |
| 20260504191423 | 69 | 246 | 7.0 | 11.3 | 0.00 | 0.00 | 0.00 | 29 | 1005.6 |
| 20260504190918 | 69 | 239 | 2.6 | 12.2 | 0.00 | 0.00 | 0.00 | 29 | 1005.7 |
| 20260504190414 | 69 | 297 | 5.2 | 11.3 | 0.00 | 0.00 | 0.00 | 29 | 1005.5 |
| 20260504185911 | 68 | 225 | 8.7 | 15.6 | 0.00 | 0.00 | 0.00 | 30 | 1005.6 |
| 20260504185408 | 68 | 169 | 6.1 | 9.6 | 0.00 | 0.00 | 0.00 | 30 | 1005.6 |
| 20260504184904 | 67 | 215 | 7.0 | 13.9 | 0.00 | 0.00 | 0.00 | 31 | 1005.7 |
| 20260504184400 | 68 | 241 | 7.8 | 11.3 | 0.00 | 0.00 | 0.00 | 29 | 1005.9 |
| 20260504183856 | 68 | 357 | 3.5 | 10.4 | 0.00 | 0.00 | 0.00 | 30 | 1006.1 |
| 20260504183354 | 68 | 236 | 5.2 | 13.9 | 0.00 | 0.00 | 0.00 | 31 | 1005.9 |
| 20260504182851 | 67 | 169 | 5.2 | 13.0 | 0.00 | 0.00 | 0.00 | 30 | 1006.1 |
| 20260504182348 | 67 | 230 | 15.6 | 16.5 | 0.00 | 0.00 | 0.00 | 29 | 1005.8 |
| 20260504181845 | 68 | 301 | 5.2 | 12.2 | 0.00 | 0.00 | 0.00 | 29 | 1006.2 |
| 20260504181342 | 67 | 233 | 17.4 | 21.7 | 0.00 | 0.00 | 0.00 | 29 | 1006.1 |
| 20260504180841 | 67 | 247 | 9.6 | 15.6 | 0.00 | 0.00 | 0.00 | 29 | 1005.9 |
| 20260504180339 | 67 | 237 | 6.1 | 13.0 | 0.00 | 0.00 | 0.00 | 29 | 1005.9 |
| 20260504175837 | 67 | 254 | 7.0 | 17.4 | 0.00 | 0.00 | 0.00 | 28 | 1006.1 |
| 20260504175333 | 68 | 224 | 6.1 | 9.6 | 0.00 | 0.00 | 0.00 | 28 | 1006.1 |
| 20260504174832 | 67 | 218 | 4.3 | 12.2 | 0.00 | 0.00 | 0.00 | 32 | 1005.9 |
| 20260504174329 | 66 | 251 | 7.0 | 13.0 | 0.00 | 0.00 | 0.00 | 28 | 1006.4 |
| 20260504173826 | 67 | 222 | 10.4 | 12.2 | 0.00 | 0.00 | 0.00 | 29 | 1006.6 |
| 20260504173322 | 66 | 166 | 3.5 | 13.0 | 0.00 | 0.00 | 0.00 | 31 | 1006.5 |
| 20260504172820 | 66 | 207 | 3.5 | 9.6 | 0.00 | 0.00 | 0.00 | 30 | 1006.4 |
| 20260504172316 | 67 | 206 | 1.7 | 11.3 | 0.00 | 0.00 | 0.00 | 32 | 1006.6 |
| 20260504171812 | 65 | 167 | 2.6 | 13.0 | 0.00 | 0.00 | 0.00 | 34 | 1006.7 |
| 20260504171309 | 66 | 229 | 8.7 | 14.8 | 0.00 | 0.00 | 0.00 | 30 | 1006.6 |
| 20260504170806 | 66 | 224 | 1.7 | 12.2 | 0.00 | 0.00 | 0.00 | 32 | 1006.5 |
| 20260504170303 | 65 | 237 | 10.4 | 16.5 | 0.00 | 0.00 | 0.00 | 29 | 1006.4 |
| 20260504160221 | 63 | 216 | 7.0 | 16.5 | 0.00 | 0.00 | 0.00 | 33 | 1007.3 |
| 20260504151150 | 62 | 200 | 5.2 | 9.6 | 0.00 | 0.00 | 0.00 | 34 | 1007.6 |
| 20260504150647 | 62 | 259 | 6.1 | 11.3 | 0.00 | 0.00 | 0.00 | 34 | 1007.8 |
| 20260504150143 | 62 | 226 | 6.1 | 14.8 | 0.00 | 0.00 | 0.00 | 35 | 1007.8 |
| 20260504141113 | 60 | 211 | 1.7 | 7.0 | 0.00 | 0.00 | 0.00 | 37 | 1007.9 |
| 20260504140609 | 59 | 216 | 5.2 | 12.2 | 0.00 | 0.00 | 0.00 | 36 | 1008.1 |
| 20260504140105 | 59 | 315 | 4.3 | 9.6 | 0.00 | 0.00 | 0.00 | 37 | 1008.4 |
| 20260504130533 | 57 | 216 | 5.2 | 7.8 | 0.00 | 0.00 | 0.00 | 40 | 1008.5 |
| 20260504110421 | 48 | 226 | 3.5 | 13.0 | 0.00 | 0.00 | 0.00 | 50 | 1008.8 |
| 20260504100337 | 43 | 197 | 1.7 | 3.5 | 0.00 | 0.00 | 0.00 | 59 | 1008.5 |
| 20260504081731 | 43 | 227 | 0.0 | 2.6 | 0.00 | 0.00 | 0.00 | 58 | 1008.0 |
| 20260504081227 | 43 | 191 | 1.7 | 1.7 | 0.00 | 0.00 | 0.00 | 58 | 1008.1 |
| 20260504080724 | 43 | 131 | 0.9 | 1.7 | 0.00 | 0.00 | 0.00 | 57 | 1008.2 |
| 20260504080221 | 44 | 101 | 0.0 | 0.9 | 0.00 | 0.00 | 0.00 | 56 | 1008.2 |
| 20260504070148 | 46 | 213 | 3.5 | 6.1 | 0.00 | 0.00 | 0.00 | 48 | 1007.9 |
| 20260504060109 | 43 | 81 | 0.0 | 1.7 | 0.00 | 0.00 | 0.00 | 57 | 1008.1 |
| 20260504050537 | 43 | 180 | 0.0 | 1.7 | 0.00 | 0.00 | 0.00 | 51 | 1008.2 |
| 20260504045531 | 42 | 192 | 0.9 | 1.7 | 0.00 | 0.00 | 0.00 | 51 | 1008.5 |
| 20260504045026 | 42 | 135 | 0.0 | 1.7 | 0.00 | 0.00 | 0.00 | 53 | 1008.6 |
| 20260504044524 | 42 | 158 | 0.0 | 1.7 | 0.00 | 0.00 | 0.00 | 52 | 1008.4 |
| 20260504044020 | 42 | 98 | 1.7 | 1.7 | 0.00 | 0.00 | 0.00 | 53 | 1008.6 |
| 20260504043517 | 42 | 61 | 0.0 | 0.9 | 0.00 | 0.00 | 0.00 | 54 | 1008.5 |
| 20260504043015 | 42 | 202 | 0.0 | 0.9 | 0.00 | 0.00 | 0.00 | 54 | 1008.5 |
| 20260504042512 | 43 | 31 | 0.0 | 0.9 | 0.00 | 0.00 | 0.00 | 53 | 1008.5 |
| 20260504042009 | 43 | 89 | 0.0 | 3.5 | 0.00 | 0.00 | 0.00 | 51 | 1008.5 |
| 20260504041504 | 43 | 291 | 0.9 | 1.7 | 0.00 | 0.00 | 0.00 | 52 | 1008.3 |
| 20260504041000 | 42 | 253 | 0.0 | 1.7 | 0.00 | 0.00 | 0.00 | 52 | 1008.3 |
| 20260504040458 | 43 | 306 | 0.0 | 1.7 | 0.00 | 0.00 | 0.00 | 54 | 1008.0 |
| 20260504035954 | 43 | 116 | 0.0 | 0.9 | 0.00 | 0.00 | 0.00 | 54 | 1008.1 |
| 20260504035452 | 44 | 336 | 0.0 | 1.7 | 0.00 | 0.00 | 0.00 | 50 | 1008.2 |
| 20260504034948 | 44 | 36 | 0.0 | 1.7 | 0.00 | 0.00 | 0.00 | 49 | 1008.2 |
| 20260504034446 | 44 | 54 | 0.9 | 1.7 | 0.00 | 0.00 | 0.00 | 50 | 1008.2 |
| 20260504033942 | 44 | 203 | 1.7 | 3.5 | 0.00 | 0.00 | 0.00 | 48 | 1008.2 |
| 20260504033440 | 44 | 215 | 1.7 | 1.7 | 0.00 | 0.00 | 0.00 | 49 | 1008.1 |
| 20260504032937 | 44 | 283 | 0.0 | 4.3 | 0.00 | 0.00 | 0.00 | 49 | 1008.1 |
| 20260504032434 | 44 | 223 | 1.7 | 2.6 | 0.00 | 0.00 | 0.00 | 46 | 1008.3 |
| 20260504031931 | 44 | 241 | 1.7 | 2.6 | 0.00 | 0.00 | 0.00 | 47 | 1008.2 |
| 20260504031428 | 44 | 296 | 1.7 | 2.6 | 0.00 | 0.00 | 0.00 | 47 | 1007.9 |
| 20260504030925 | 44 | 204 | 1.7 | 2.6 | 0.00 | 0.00 | 0.00 | 46 | 1008.0 |
| 20260504030422 | 44 | 289 | 0.9 | 0.9 | 0.00 | 0.00 | 0.00 | 47 | 1008.1 |
| 20260504025918 | 44 | 143 | 1.7 | 1.7 | 0.00 | 0.00 | 0.00 | 44 | 1008.1 |
| 20260504025415 | 44 | 227 | 0.0 | 1.7 | 0.00 | 0.00 | 0.00 | 45 | 1008.0 |
| 20260504024912 | 44 | 168 | 0.9 | 1.7 | 0.00 | 0.00 | 0.00 | 46 | 1007.9 |
| 20260504024409 | 44 | 269 | 0.0 | 2.6 | 0.00 | 0.00 | 0.00 | 46 | 1008.0 |
| 20260504023906 | 44 | 191 | 1.7 | 1.7 | 0.00 | 0.00 | 0.00 | 47 | 1007.9 |
| 20260504023402 | 43 | 268 | 0.0 | 1.7 | 0.00 | 0.00 | 0.00 | 48 | 1007.8 |
| 20260504022857 | 43 | 286 | 0.0 | 2.6 | 0.00 | 0.00 | 0.00 | 52 | 1007.8 |
| 20260504022354 | 43 | 299 | 1.7 | 1.7 | 0.00 | 0.00 | 0.00 | 49 | 1007.9 |
| 20260504021850 | 43 | 235 | 0.0 | 1.7 | 0.00 | 0.00 | 0.00 | 49 | 1007.9 |
| 20260504021348 | 43 | 252 | 1.7 | 1.7 | 0.00 | 0.00 | 0.00 | 51 | 1007.7 |
| 20260504020845 | 43 | 178 | 0.0 | 1.7 | 0.00 | 0.00 | 0.00 | 52 | 1007.8 |
| 20260504020342 | 43 | 246 | 1.7 | 1.7 | 0.00 | 0.00 | 0.00 | 49 | 1007.5 |
| 20260504015838 | 43 | 196 | 1.7 | 3.5 | 0.00 | 0.00 | 0.00 | 49 | 1007.6 |
| 20260504015334 | 43 | 207 | 0.9 | 1.7 | 0.00 | 0.00 | 0.00 | 51 | 1007.7 |
| 20260504014830 | 43 | 189 | 0.9 | 1.7 | 0.00 | 0.00 | 0.00 | 51 | 1007.7 |
| 20260504014326 | 43 | 44 | 0.0 | 1.7 | 0.00 | 0.00 | 0.00 | 52 | 1007.7 |
| 20260504013824 | 42 | 176 | 0.9 | 1.7 | 0.00 | 0.00 | 0.00 | 54 | 1007.4 |
| 20260504013322 | 42 | 134 | 0.0 | 1.7 | 0.00 | 0.00 | 0.00 | 57 | 1007.5 |
| 20260504012818 | 42 | 145 | 0.0 | 1.7 | 0.00 | 0.00 | 0.00 | 57 | 1007.6 |
| 20260504012316 | 42 | 124 | 0.0 | 1.7 | 0.00 | 0.00 | 0.00 | 58 | 1007.4 |
| 20260504011814 | 42 | 135 | 0.0 | 1.7 | 0.00 | 0.00 | 0.00 | 57 | 1007.3 |
| 20260504011310 | 42 | 55 | 0.0 | 1.7 | 0.00 | 0.00 | 0.00 | 58 | 1007.3 |
| 20260504010806 | 42 | 172 | 0.0 | 1.7 | 0.00 | 0.00 | 0.00 | 59 | 1007.2 |
| 20260504010301 | 42 | 38 | 0.0 | 0.9 | 0.00 | 0.00 | 0.00 | 59 | 1007.0 |
| 20260504005758 | 42 | 209 | 0.0 | 1.7 | 0.00 | 0.00 | 0.00 | 59 | 1006.9 |
| 20260504005255 | 42 | 145 | 0.0 | 0.9 | 0.00 | 0.00 | 0.00 | 58 | 1006.8 |
| 20260504004753 | 43 | 160 | 0.0 | 1.7 | 0.00 | 0.00 | 0.00 | 55 | 1006.9 |
| 20260504004250 | 43 | 120 | 0.9 | 0.9 | 0.00 | 0.00 | 0.00 | 54 | 1006.8 |
| 20260504003746 | 43 | 119 | 0.9 | 1.7 | 0.00 | 0.00 | 0.00 | 53 | 1006.8 |
| 20260504003243 | 43 | 99 | 0.9 | 1.7 | 0.00 | 0.00 | 0.00 | 51 | 1006.7 |
| 20260504002740 | 43 | 108 | 0.0 | 1.7 | 0.00 | 0.00 | 0.00 | 50 | 1006.9 |
| 20260504002237 | 44 | 119 | 0.0 | 1.7 | 0.00 | 0.00 | 0.00 | 48 | 1006.9 |
| 20260504001735 | 45 | 95 | 0.0 | 1.7 | 0.00 | 0.00 | 0.00 | 46 | 1006.5 |
| 20260504001231 | 45 | 138 | 0.0 | 0.0 | 0.00 | 0.00 | 0.00 | 46 | 1006.6 |
| 20260504000728 | 45 | 118 | 0.0 | 0.0 | 0.00 | 0.00 | 0.00 | 45 | 1006.6 |
| 20260504000226 | 46 | 106 | 0.0 | 1.7 | 0.00 | 0.00 | 0.00 | 45 | 1006.5 |
| 20260503235724 | 46 | 121 | 0.9 | 0.9 | 0.00 | 0.00 | 0.00 | 45 | 1006.4 |
| 20260503235220 | 46 | 152 | 0.0 | 0.9 | 0.00 | 0.00 | 0.00 | 45 | 1006.4 |
| 20260503234718 | 47 | 124 | 0.0 | 0.9 | 0.00 | 0.00 | 0.00 | 45 | 1006.6 |
| 20260503234216 | 47 | 116 | 1.7 | 1.7 | 0.00 | 0.00 | 0.00 | 44 | 1006.4 |
| 20260503233713 | 47 | 130 | 0.0 | 1.7 | 0.00 | 0.00 | 0.00 | 43 | 1006.4 |
| 20260503233208 | 48 | 63 | 0.0 | 1.7 | 0.00 | 0.00 | 0.00 | 43 | 1006.2 |
| 20260503232705 | 48 | 213 | 1.7 | 1.7 | 0.00 | 0.00 | 0.00 | 41 | 1006.3 |
| 20260503232202 | 49 | 147 | 0.0 | 1.7 | 0.00 | 0.00 | 0.00 | 41 | 1006.3 |
| 20260503231701 | 49 | 103 | 0.0 | 2.6 | 0.00 | 0.00 | 0.00 | 39 | 1006.1 |
| 20260503231157 | 49 | 272 | 0.0 | 2.6 | 0.00 | 0.00 | 0.00 | 39 | 1006.1 |
| 20260503230653 | 50 | 2 | 2.6 | 5.2 | 0.00 | 0.00 | 0.00 | 38 | 1006.2 |
| 20260503230151 | 50 | 2 | 2.6 | 5.2 | 0.00 | 0.00 | 0.00 | 37 | 1005.9 |
| 20260503225648 | 51 | 185 | 1.7 | 6.1 | 0.00 | 0.00 | 0.00 | 36 | 1005.9 |
| 20260503225148 | 52 | 327 | 0.9 | 4.3 | 0.00 | 0.00 | 0.00 | 35 | 1005.9 |
| 20260503224645 | 52 | 255 | 1.7 | 5.2 | 0.00 | 0.00 | 0.00 | 35 | 1005.7 |
| 20260503224143 | 52 | 70 | 1.7 | 5.2 | 0.00 | 0.00 | 0.00 | 36 | 1005.8 |
| 20260503223641 | 52 | 49 | 0.0 | 10.4 | 0.00 | 0.00 | 0.00 | 36 | 1005.8 |
| 20260503223137 | 52 | 293 | 3.5 | 6.1 | 0.00 | 0.00 | 0.00 | 34 | 1005.8 |
| 20260503222635 | 51 | 289 | 1.7 | 4.3 | 0.00 | 0.00 | 0.00 | 36 | 1006.1 |
| 20260503222132 | 52 | 222 | 3.5 | 6.1 | 0.00 | 0.00 | 0.00 | 34 | 1005.8 |
| 20260503221631 | 52 | 65 | 3.5 | 5.2 | 0.00 | 0.00 | 0.00 | 34 | 1005.7 |
| 20260503221127 | 51 | 332 | 1.7 | 4.3 | 0.00 | 0.00 | 0.00 | 37 | 1005.6 |
| 20260503220624 | 50 | 235 | 3.5 | 5.2 | 0.00 | 0.00 | 0.00 | 37 | 1005.6 |
| 20260503220121 | 50 | 224 | 0.0 | 3.5 | 0.00 | 0.00 | 0.00 | 37 | 1005.7 |
| 20260503215618 | 51 | 358 | 1.7 | 7.8 | 0.00 | 0.00 | 0.00 | 34 | 1005.6 |
| 20260503215114 | 52 | 117 | 5.2 | 6.1 | 0.00 | 0.00 | 0.00 | 35 | 1005.2 |
| 20260503214613 | 52 | 179 | 2.6 | 5.2 | 0.00 | 0.00 | 0.00 | 35 | 1005.4 |
| 20260503214109 | 53 | 268 | 6.1 | 7.0 | 0.00 | 0.00 | 0.00 | 35 | 1005.3 |
| 20260503213608 | 51 | 147 | 2.6 | 3.5 | 0.00 | 0.00 | 0.00 | 36 | 1005.4 |
| 20260503213103 | 50 | 255 | 2.6 | 5.2 | 0.00 | 0.00 | 0.00 | 37 | 1005.4 |